Heber, UT

1:50 AM MDT on June 25, 2017 (GMT -0600)
Heber

Weather History for K36U - October, 2012

Change the Weather History Date:

Monday, October 8, 2012

  Actual Average (KPVU) Record (KPVU)
Temperature  
Mean Temperature 45 °F -  
Max Temperature 71 °F 66 °F 82 °F (2003)
Min Temperature 19 °F 38 °F 32 °F (1982)
Degree Days  
Heating Degree Days 20    
Moisture  
Dew Point 19 °F    
Average Humidity 50    
Maximum Humidity 86    
Minimum Humidity 13    
Precipitation  
Precipitation 0.00 in - - ()
Sea Level Pressure  
Sea Level Pressure 30.09 in    
Wind  
Wind Speed 2 mph (SSW)    
Max Wind Speed 15 mph    
Max Gust Speed 23 mph    
Visibility 10 miles    
Events      
Averages and records for this station are not official NWS values.
T = Trace of Precipitation, MM = Missing Value Source: NWS Daily Summary

Daily Weather History Graph

Daily Weather History Graph

Search for Another Location

Airport or City:

Trip Planner

Search our weather history database for the weather conditions in past years. The results will help you decide how hot, cold, wet, or windy it might be!

Date:

Astronomy

Oct. 08, 2012 Rise Set
Actual Time 7:29 AM MDT 6:55 PM MDT
Civil Twilight 7:02 AM MDT 7:22 PM MDT
Nautical Twilight 6:30 AM MDT 7:54 PM MDT
Astronomical Twilight 5:59 AM MDT 8:26 PM MDT
Moon 12:11 AM MDT (10/8) 2:48 PM MDT (10/8)
Length of Visible Light 12h 20m
Length of Day
11h 25m
Last Quarter, 46% of the Moon is Illuminated
Oct 8
Last Quarter
Oct 15
New
Oct 21
First Quarter
Oct 29
Full
Nov 6
Last Quarter

Hourly Weather History & Observations

Time (MDT) Temp. Windchill Dew Point Humidity Pressure Visibility Wind Dir Wind Speed Gust Speed Precip Events Conditions
12:15 AM 30.2 °F - 19.4 °F 64% 30.16 in 10.0 mi Calm Calm - N/A   Clear
12:35 AM 28.4 °F - 17.6 °F 64% 30.16 in 10.0 mi Calm Calm - N/A   Clear
12:55 AM 30.2 °F - 17.6 °F 60% 30.16 in 10.0 mi Calm Calm - N/A   Clear
1:15 AM 32.0 °F - 17.6 °F 55% 30.16 in 10.0 mi Calm Calm - N/A   Clear
1:35 AM 26.6 °F - 19.4 °F 74% 30.17 in 10.0 mi Calm Calm - N/A   Clear
1:55 AM 26.6 °F - 17.6 °F 69% 30.17 in 10.0 mi Calm Calm - N/A   Clear
2:15 AM 26.6 °F - 17.6 °F 69% 30.17 in 10.0 mi Calm Calm - N/A   Clear
2:35 AM 23.0 °F - 17.6 °F 80% 30.17 in 10.0 mi Calm Calm - N/A   Clear
2:55 AM 23.0 °F - 17.6 °F 80% 30.16 in 10.0 mi Calm Calm - N/A   Clear
3:15 AM 23.0 °F - 17.6 °F 80% 30.16 in 10.0 mi Calm Calm - N/A   Clear
3:35 AM 23.0 °F - 17.6 °F 80% 30.16 in 10.0 mi Calm Calm - N/A   Clear
3:55 AM 23.0 °F - 17.6 °F 80% 30.16 in 10.0 mi Calm Calm - N/A   Clear
4:15 AM 23.0 °F 17.0 °F 17.6 °F 80% 30.15 in 10.0 mi SE 4.6 mph - N/A   Clear
4:35 AM 23.0 °F - 17.6 °F 80% 30.14 in 10.0 mi Calm Calm - N/A   Clear
5:15 AM 21.2 °F - 15.8 °F 80% 30.16 in 10.0 mi Calm Calm - N/A   Clear
5:35 AM 21.2 °F - 15.8 °F 80% 30.15 in 10.0 mi Calm Calm - N/A   Clear
5:55 AM 21.2 °F - 15.8 °F 80% 30.16 in 10.0 mi Calm Calm - N/A   Clear
6:15 AM 21.2 °F - 17.6 °F 86% 30.16 in 10.0 mi Calm Calm - N/A   Clear
6:35 AM 21.2 °F - 15.8 °F 80% 30.16 in 10.0 mi Calm Calm - N/A   Clear
6:55 AM 19.4 °F - 15.8 °F 86% 30.16 in 10.0 mi Calm Calm - N/A   Clear
7:15 AM 19.4 °F - 15.8 °F 86% 30.16 in 5.0 mi Calm Calm - N/A   Clear
7:35 AM 19.4 °F 14.3 °F 14.0 °F 80% 30.16 in 10.0 mi ESE 3.5 mph - N/A   Clear
7:55 AM 19.4 °F - 14.0 °F 80% 30.16 in 5.0 mi Calm Calm - N/A   Haze
8:15 AM 23.0 °F - 17.6 °F 80% 30.16 in 5.0 mi Calm Calm - N/A   Haze
8:35 AM 26.6 °F - 19.4 °F 74% 30.17 in 7.0 mi Calm Calm - N/A   Clear
8:55 AM 28.4 °F - 17.6 °F 64% 30.17 in 10.0 mi Calm Calm - N/A   Clear
9:15 AM 32.0 °F - 19.4 °F 60% 30.16 in 7.0 mi Calm Calm - N/A   Clear
9:35 AM 32.0 °F - 19.4 °F 60% 30.16 in 10.0 mi Calm Calm - N/A   Clear
9:55 AM 35.6 °F - 19.4 °F 52% 30.16 in 10.0 mi Calm Calm - N/A   Clear
10:15 AM 35.6 °F - 19.4 °F 52% 30.15 in 10.0 mi Calm Calm - N/A   Clear
10:35 AM 39.2 °F - 19.4 °F 45% 30.15 in 10.0 mi Calm Calm - N/A   Clear
10:55 AM 41.0 °F - 19.4 °F 42% 30.13 in 10.0 mi Calm Calm - N/A   Clear
11:15 AM 44.6 °F - 19.4 °F 37% 30.12 in 10.0 mi Calm Calm - N/A   Clear
11:35 AM 46.4 °F - 17.6 °F 32% 30.11 in 10.0 mi Calm Calm - N/A   Clear
11:55 AM 48.2 °F - 14.0 °F 25% 30.10 in 10.0 mi Calm Calm - N/A   Clear
12:15 PM 50.0 °F - 15.8 °F 26% 30.09 in 10.0 mi Calm Calm - N/A   Clear
12:35 PM 53.6 °F - 15.8 °F 22% 30.08 in 10.0 mi Calm Calm - N/A   Clear
12:55 PM 55.4 °F - 15.8 °F 21% 30.07 in 10.0 mi Calm Calm - N/A   Clear
1:15 PM 57.2 °F - 14.0 °F 18% 30.05 in 10.0 mi North 3.5 mph - N/A   Clear
1:35 PM 60.8 °F - 14.0 °F 16% 30.05 in 10.0 mi Calm Calm - N/A   Clear
2:15 PM 64.4 °F - 19.4 °F 18% 30.03 in 10.0 mi Calm Calm - N/A   Clear
2:35 PM 68.0 °F - 17.6 °F 15% 30.01 in 10.0 mi Calm Calm - N/A   Clear
2:55 PM 71.6 °F - 17.6 °F 13% 30.00 in 10.0 mi SW 6.9 mph - N/A   Clear
3:15 PM 71.6 °F - 19.4 °F 14% 30.00 in 10.0 mi SW 12.7 mph 17.3 mph N/A   Clear
3:35 PM 69.8 °F - 19.4 °F 15% 30.00 in 10.0 mi SW 12.7 mph 20.7 mph N/A   Clear
3:55 PM 69.8 °F - 19.4 °F 15% 30.00 in 10.0 mi SW 15.0 mph 23.0 mph N/A   Clear
4:15 PM 69.8 °F - 19.4 °F 15% 29.99 in 10.0 mi SW 13.8 mph - N/A   Clear
4:35 PM 69.8 °F - 17.6 °F 14% 29.99 in 10.0 mi SW 15.0 mph 19.6 mph N/A   Clear
4:55 PM 69.8 °F - 17.6 °F 14% 30.00 in 10.0 mi WSW 12.7 mph 17.3 mph N/A   Clear
5:15 PM 69.8 °F - 19.4 °F 15% 29.99 in 10.0 mi SW 10.4 mph - N/A   Clear
5:35 PM 68.0 °F - 19.4 °F 16% 30.00 in 10.0 mi SW 11.5 mph 21.9 mph N/A   Clear
5:55 PM 68.0 °F - 19.4 °F 16% 30.00 in 10.0 mi SW 11.5 mph - N/A   Clear
6:15 PM 64.4 °F - 21.2 °F 19% 30.00 in 10.0 mi SW 9.2 mph - N/A   Clear
6:35 PM 62.6 °F - 19.4 °F 19% 30.00 in 10.0 mi SW 9.2 mph - N/A   Clear
7:15 PM 53.6 °F - 21.2 °F 28% 29.99 in 10.0 mi South 4.6 mph - N/A   Clear
7:35 PM 53.6 °F - 19.4 °F 26% 29.99 in 10.0 mi SSE 4.6 mph - N/A   Clear
8:15 PM 44.6 °F 40.7 °F 23.0 °F 43% 30.01 in 10.0 mi ESE 6.9 mph - N/A   Clear
8:35 PM 44.6 °F 42.2 °F 23.0 °F 43% 30.01 in 10.0 mi SE 4.6 mph - N/A   Clear
8:55 PM 41.0 °F 37.1 °F 23.0 °F 49% 30.01 in 7.0 mi East 5.8 mph - N/A   Clear
9:15 PM 42.8 °F 41.1 °F 23.0 °F 46% 30.01 in 10.0 mi ESE 3.5 mph - N/A   Clear
9:35 PM 39.2 °F - 23.0 °F 52% 30.02 in 5.0 mi Calm Calm - N/A   Haze
9:55 PM 37.4 °F - 24.8 °F 60% 30.02 in 10.0 mi Calm Calm - N/A   Clear
10:15 PM 42.8 °F - 21.2 °F 42% 30.02 in 10.0 mi Calm Calm - N/A   Clear
10:35 PM 35.6 °F - 24.8 °F 65% 30.02 in 10.0 mi Calm Calm - N/A   Clear
10:55 PM 35.6 °F - 24.8 °F 65% 30.03 in 10.0 mi Calm Calm - N/A   Clear
11:15 PM 33.8 °F - 24.8 °F 70% 30.03 in 10.0 mi Calm Calm - N/A   Clear
11:35 PM 33.8 °F - 24.8 °F 70% 30.03 in 10.0 mi Calm Calm - N/A   Clear
11:55 PM 39.2 °F 35.9 °F 23.0 °F 52% 30.03 in 10.0 mi SE 4.6 mph - N/A   Clear